[Date Prev][Date Next][Thread Prev][Thread Next] - [Date Index][Thread Index][Author Index]
2 LIne ISS Keps 5-21
- Subject: [sarex] 2 LIne ISS Keps 5-21
- From: "Dr Dave Larsen [ PhD ]" <doc@xxxxxxxxxxx>
- Date: Mon, 21 May 2001 03:52:24 -0700
ISS
1 25544U 98067A 01141.14518519 .00034610 00000-0 41903-3 0 9883
2 25544 51.5710 225.1127 0017649 69.6588 313.3981 15.60147790142858
----
Via the sarex mailing list at AMSAT.ORG courtesy of AMSAT-NA.
To unsubscribe, send "unsubscribe sarex" to Majordomo@amsat.org
AMSAT Home